Regional Weather Roundup
Issued by NWS

Home | Current Version | Previous Version | Graphics & Text | Print | Product List | Glossary On
Versions: 1 2 3 4 5 6 7 8 9 10 11 12 13 14 15 16 17 18 19 20 21 22 23 24 25 26 27 28 29 30 31 32 33 34 35 36 37 38 39 40 41 42 43 44 45 46 47 48 49 50
000
ASUS43 KLSX 211959
RWRMO

WEATHER SUMMARY FOR MISSOURI
NATIONAL WEATHER SERVICE SPRINGFIELD MO
300 PM CDT TUE OCT 21 2014

NOTE: "FAIR" INDICATES FEW OR NO CLOUDS BELOW 12,000 FEET WITH NO
       SIGNIFICANT WEATHER AND/OR OBSTRUCTIONS TO VISIBILITY.
       CURRENT SKY AND/OR WEATHER CONDITIONS ARE NOT AVAILABLE FOR
       CHILLICOTHE AND FARMINGTON.

MOZ001>031-035>038-043-044-053-054-212100-
...NORTHERN AND WESTERN MISSOURI...

CITY           SKY/WX    TMP DP  RH WIND       PRES   REMARKS
KANSAS CTY INT SUNNY     72  43  35 S6        30.09F
KANSAS C DTWN  SUNNY     75  44  33 VRB3      30.08F
LEE`S SUMMIT   SUNNY     73  43  33 E3        30.09F
ST JOSEPH      SUNNY     74  42  31 SE6       30.08F
KIRKSVILLE     SUNNY     66  46  48 E7        30.13F

$$
MOZ066>068-077>081-088>096-101>105-212100-
...SOUTHWEST MISSOURI...

CITY           SKY/WX    TMP DP  RH WIND       PRES   REMARKS
SPRINGFIELD    SUNNY     74  44  34 NW6       30.09F
JOPLIN         SUNNY     75  49  39 CALM      30.08F

$$
MOZ032>034-039>042-045>050-055>058-069>072-212100-
...CENTRAL MISSOURI...

CITY           SKY/WX    TMP DP  RH WIND       PRES   REMARKS
COLUMBIA       SUNNY     72  44  36 NE6       30.10F
JEFFERSON CITY SUNNY     73  43  33 NE7       30.09F
ROLLA          SUNNY     71  43  36 N8        30.09F
SEDALIA        SUNNY     73  44  35 SW5       30.10F
OSAGE BEACH    SUNNY     72  45  37 S7        30.10S

$$
MOZ051-052-059>065-212100-
...EAST CENTRAL MISSOURI...

CITY           SKY/WX    TMP DP  RH WIND       PRES   REMARKS
ST LOUIS INTL  SUNNY     67  44  43 N8        30.11F
SPIRIT OF STL  SUNNY     67  46  47 VRB3      30.10F
ST CHARLES     SUNNY     66  45  46 NE9       30.11S

$$
MOZ072>076-082>087-097>100-106>115-212100-
...SOUTH CENTRAL AND SOUTHEAST MISSOURI...

CITY           SKY/WX    TMP DP  RH WIND       PRES   REMARKS
CAPE GIRARDEAU SUNNY     71  46  40 N14       30.07F
FARMINGTON     SUNNY     70  45  40 N7        30.11S
POPLAR BLUFF   SUNNY     76  43  30 VRB3      30.05F
WEST PLAINS    SUNNY     73  43  33 MISG      30.10F

$$



USA.gov is the U.S. government's official web portal to all federal, state and local government web resources and services.